NOAA 16 DEB, 41532

Orbit data source: Space-Track

NOAA 16 DEB, 41532 is space debris in SSO originally from a launch on Thu, 21 Sep 2000 UTC launched from the Air Force Western Test Range (AFWTR). Debris objects in space refer to the collection of defunct objects orbiting the Earth. Examples of debris include non-operational satellites, rocket bodies, and fragments generated from explosions, collisions, or faulty payload assembly.

Loading next visibility...
Identifier
41532, 2000-055NG
Orbit
SSO
Country
Flag of USUS
Related business
Manufacturer
Unknown
Mission
Spacecraft
Bus & Motor
Unknown
Mass
Unknown
Launch date (UTC)
2000-09-21 (26 years ago)
Launch vehicle
Unknown
Launch site
Air Force Western Test Range (AFWTR)
Object type
Payload
Rocket body
Debris
Shape & HBR
Unknown shape, 0.1 m
Radar Cross Section
Medium (>0.1 m² and <1 m²)

Expand to show TLE details & history
Last TLE update: 3 days ago

TLE from 3 days ago
0 NOAA 16 DEB
1 41532U 00055NG  26217.53491189  .00002415  00000-0  86963-3 0  9990
2 41532  98.7391 318.8885 0009101  29.9433 330.2271 14.34644657533379
Epoch: 2026-08-05T12:50Z
TLE epoch observation values (Epoch: 2026-08-05T12:50:16.387Z)
Latitude
0.00005°
Longitude
172.23229°
Altitude
773.53 km
Speed
7.47 km/s
True Right ascension
21h 15m 33s
True Declination
0° 00' 00"
Sunlit
Object was in full shadow at epoch
Visualization orbit readout
Latitude
Unknown
Longitude
Unknown
Altitude
Unknown
Speed
Unknown
Apparent Right ascension
Unknown
Apparent Declination
Unknown
Sunlit
N/A
Visualization observer readout
Local Sidereal Time
00:55:50
Azimuth
Unknown
Elevation
Unknown
Doppler factor
Unknown
Orbital elements
Apogee altitude
779.897 km
Perigee altitude
766.879 km
Semi-major axis
7,151.525 km
Eccentricity
0.00091
Inclination
98.7391°
RAAN
318.8885°
Arg. of periapsis
29.9433°
True anomaly
330.17526°
Mean anomaly
330.2271°
Eccentric anomaly
330.20119°
Mean motion
3.58877 °/min
Orbital period
100.31 mins
BSTAR
0.00086963
Loading maneuver chart data...
Computing Atmospheric mass density...
Loading historical data...
Loading historical data...
Loading historical data...
Loading historical data...
Loading historical data...
Loading historical data...
Loading historical data...

Documentation

Showing up to 5 results
|